Showing default

GLOBALSTAR M070, 32264

Orbit data source: Space-Track

GLOBALSTAR M070, 32264 is a payload satellite owned by Globalstar (US) in LEO that was launched on Sat, 20 Oct 2007 UTC via a SOYUZ-FG launch vehicle from the Tyuratam Missile And Space Complex (TTMTR). Payload-class satellites include a variety of spacecraft equipped with specific instruments for various scientific and technological missions. These include communications satellites like Starlink; space stations such as the ISS; scientific satellites like the Hubble; Earth observation satellites from companies like Planet Labs, Umbra, and HawkEye 360; GPS; miniature CubeSats for education and research; and military/defense satellites.

Loading next visibility...
Identifier
32264, 2007-048B
Orbit
LEO
Country
Flag of UnknownUnknown / GLOB
Related business
Manufacturer
SS/Loral
Mission
Non-operational Commercial Communications
Bus & Motor
LS-400, LS-400 AOCS
Mass
450 kg wet, 380 kg dry
Launch date (UTC)
2007-10-20 (18 years ago)
Launch vehicle
SOYUZ-FG
Launch site
Tyuratam Missile And Space Complex (TTMTR)
Object type
Payload
Rocket body
Debris
Shape & HBR
Box + 2 Pan, 6.0 m
Radar Cross Section
5.587 m², Large (>1 m²)

Expand to show TLE details & history
Last TLE update: 18 hours ago

TLE from 18 hours ago
0 GLOBALSTAR M070
1 32264U 07048B   25259.61306512 -.00000095  00000-0  47420-4 0  9999
2 32264  51.9740 209.9812 0000555  38.9019 132.9081 12.62322565825217
Epoch: 2025-09-16T14:42Z
TLE epoch observation values (Epoch: 2025-09-16T14:42:48.826Z)
Latitude
6.4064°
Longitude
168.46446°
Altitude
1,413.746 km
Speed
7.155 km/s
True Right ascension
01h 39m 52s
True Declination
6° 22' 18"
Sunlit
Object was in full shadow at epoch
Visualization orbit readout
Latitude
Unknown
Longitude
Unknown
Altitude
Unknown
Speed
Unknown
Apparent Right ascension
Unknown
Apparent Declination
Unknown
Sunlit
N/A
Visualization observer readout
Local Sidereal Time
01:07:33
Azimuth
Unknown
Elevation
Unknown
Doppler factor
Unknown
Orbital elements
Apogee altitude
1,414.201 km
Perigee altitude
1,413.336 km
Semi-major axis
7,791.906 km
Eccentricity
0.00006
Inclination
51.974°
RAAN
209.9812°
Arg. of periapsis
38.9019°
True anomaly
132.91276°
Mean anomaly
132.9081°
Eccentric anomaly
132.91043°
Mean motion
3.15557 °/min
Orbital period
114.08 mins
BSTAR
0.00004742
Loading maneuver chart data...
Computing Atmospheric mass density...
Loading historical data...
Loading historical data...
Loading historical data...
Loading historical data...
Loading historical data...
Loading historical data...
Loading historical data...
Other satellites on launch #48 in the year 2007 (2007-10-20 UTC)

Documentation

Showing up to 5 results
|